QPF
0.00 0.00 0.00 0.00 0.00 0.00 0.00 0.00 0.00 0.00 0.00 0.00 0.00 0.00 0.00 0.00 0.00 0.00 0.00 0.00 0.00 0.00 0.00 0.00 0.01 0.01 0.01 0.01 0.01 0.01 0.01 0.01 0.02 0.03 0.04 0.04 0.05 0.06 0.06 0.07 0.07 0.06 0.05
0.00 0.00 0.00 0.00 0.00 0.00 0.00 0.00 0.00 0.00 0.00 0.00 0.00 0.00 0.00 0.00 0.00 0.00 0.00 0.00 0.00 0.00 0.00 0.00 0.01 0.01 0.01 0.01 0.01 0.02 0.02 0.02 0.02 0.04 0.06 0.05 0.06 0.05 0.04 0.06 0.07 0.07 0.06
0.00 0.00 0.00 0.00 0.00 0.00 0.00 0.00 0.00 0.00 0.00 0.00 0.00 0.00 0.00 0.00 0.00 0.00 0.00 0.01 0.01 0.00 0.00 0.00 0.01 0.01 0.01 0.02 0.02 0.03 0.03 0.03 0.03 0.04 0.05 0.06 0.07 0.06 0.04 0.04 0.05 0.06 0.07
0.00 0.00 0.00 0.00 0.00 0.00 0.00 0.00 0.00 0.00 0.00 0.00 0.00 0.00 0.00 0.00 0.00 0.00 0.01 0.01 0.00 0.00 0.00 0.00 0.00 0.00 0.01 0.01 0.02 0.02 0.03 0.04 0.04 0.04 0.04 0.05 0.06 0.07 0.06 0.03 0.04 0.06 0.07
0.00 0.00 0.00 0.00 0.00 0.00 0.00 0.00 0.00 0.00 0.00 0.00 0.00 0.00 0.00 0.00 0.00 0.00 0.00 0.01 0.01 0.00 0.00 0.00 0.00 0.01 0.01 0.01 0.02 0.03 0.03 0.04 0.04 0.05 0.04 0.04 0.05 0.05 0.06 0.05 0.05 0.04 0.05
0.00 0.00 0.00 0.00 0.00 0.00 0.00 0.00 0.00 0.00 0.00 0.00 0.00 0.00 0.00 0.00 0.00 0.00 0.00 0.01 0.01 0.01 0.01 0.00 0.00 0.01 0.01 0.01 0.03 0.03 0.03 0.03 0.04 0.06 0.05 0.06 0.07 0.06 0.06 0.06 0.05 0.05 0.04
0.00 0.00 0.00 0.00 0.00 0.00 0.00 0.00 0.00 0.00 0.00 0.00 0.00 0.00 0.00 0.00 0.00 0.00 0.00 0.00 0.00 0.00 0.00 0.00 0.01 0.01 0.01 0.01 0.02 0.03 0.02 0.03 0.03 0.04 0.04 0.05 0.05 0.06 0.06 0.07 0.05 0.04 0.03
0.00 0.00 0.00 0.00 0.00 0.00 0.00 0.00 0.00 0.00 0.00 0.00 0.00 0.00 0.00 0.00 0.00 0.00 0.00 0.00 0.00 0.00 0.00 0.00 0.01 0.01 0.01 0.02 0.02 0.03 0.03 0.02 0.03 0.03 0.03 0.03 0.03 0.04 0.04 0.06 0.07 0.06 0.05
0.00 0.00 0.00 0.00 0.00 0.00 0.00 0.00 0.00 0.00 0.00 0.00 0.00 0.00 0.00 0.00 0.00 0.00 0.01 0.00 0.00 0.00 0.00 0.00 0.00 0.01 0.01 0.02 0.03 0.04 0.03 0.03 0.05 0.04 0.03 0.03 0.03 0.03 0.03 0.03 0.06 0.07 0.07
0.00 0.00 0.00 0.00 0.00 0.00 0.00 0.00 0.00 0.00 0.00 0.00 0.00 0.00 0.00 0.00 0.00 0.00 0.00 0.00 0.00 0.00 0.00 0.00 0.01 0.01 0.01 0.02 0.04 0.04 0.03 0.03 0.04 0.04 0.04 0.04 0.03 0.03 0.02 0.03 0.04 0.04 0.06
0.00 0.00 0.00 0.00 0.00 0.00 0.00 0.00 0.00 0.00 0.00 0.00 0.00 0.00 0.00 0.00 0.00 0.00 0.00 0.00 0.00 0.00 0.00 0.00 0.01 0.01 0.01 0.02 0.03 0.04 0.03 0.02 0.03 0.03 0.04 0.05 0.04 0.04 0.03 0.02 0.04 0.04 0.04
0.00 0.00 0.00 0.00 0.00 0.00 0.00 0.00 0.00 0.00 0.00 0.00 0.00 0.00 0.00 0.00 0.00 0.00 0.00 0.00 0.00 0.00 0.00 0.00 0.01 0.00 0.01 0.02 0.02 0.02 0.03 0.03 0.03 0.03 0.03 0.06 0.04 0.04 0.03 0.03 0.03 0.03 0.03
0.00 0.00 0.00 0.00 0.00 0.00 0.00 0.00 0.00 0.00 0.00 0.00 0.00 0.00 0.00 0.00 0.00 0.00 0.00 0.00 0.00 0.00 0.00 0.01 0.01 0.00 0.01 0.02 0.01 0.01 0.02 0.02 0.02 0.03 0.03 0.04 0.03 0.04 0.03 0.03 0.03 0.03 0.03
0.00 0.00 0.00 0.00 0.00 0.00 0.00 0.00 0.00 0.00 0.00 0.00 0.00 0.00 0.00 0.00 0.00 0.00 0.00 0.00 0.00 0.00 0.01 0.01 0.00 0.00 0.00 0.01 0.01 0.01 0.02 0.02 0.02 0.02 0.03 0.03 0.03 0.05 0.04 0.03 0.04 0.04 0.04
0.00 0.00 0.00 0.00 0.00 0.00 0.00 0.00 0.00 0.00 0.00 0.00 0.00 0.00 0.00 0.00 0.00 0.00 0.00 0.00 0.00 0.00 0.00 0.00 0.00 0.00 0.00 0.00 0.01 0.01 0.01 0.01 0.02 0.02 0.02 0.02 0.02 0.02 0.03 0.03 0.03 0.04 0.05
0.00 0.00 0.00 0.00 0.00 0.00 0.00 0.00 0.00 0.00 0.00 0.00 0.00 0.00 0.00 0.00 0.00 0.00 0.00 0.00 0.00 0.00 0.00 0.00 0.01 0.01 0.01 0.00 0.00 0.00 0.00 0.00 0.01 0.01 0.02 0.01 0.01 0.02 0.02 0.02 0.02 0.03 0.04
0.00 0.00 0.00 0.00 0.00 0.00 0.00 0.00 0.00 0.00 0.00 0.00 0.00 0.00 0.00 0.00 0.00 0.00 0.00 0.00 0.00 0.00 0.00 0.00 0.00 0.00 0.00 0.00 0.00 0.00 0.00 0.00 0.00 0.00 0.02 0.02 0.02 0.03 0.04 0.04 0.03 0.03 0.03
0.00 0.00 0.00 0.00 0.00 0.00 0.00 0.00 0.00 0.00 0.00 0.00 0.00 0.00 0.00 0.00 0.00 0.00 0.00 0.00 0.00 0.00 0.00 0.00 0.00 0.00 0.00 0.00 0.00 0.00 0.00 0.00 0.00 0.00 0.01 0.01 0.02 0.02 0.03 0.03 0.03 0.04 0.03
0.00 0.00 0.00 0.00 0.00 0.00 0.00 0.00 0.00 0.00 0.00 0.00 0.00 0.00 0.00 0.00 0.00 0.00 0.00 0.00 0.00 0.00 0.00 0.00 0.00 0.00 0.00 0.00 0.00 0.00 0.00 0.00 0.00 0.00 0.00 0.00 0.01 0.01 0.02 0.02 0.02 0.03 0.03
0.00 0.00 0.00 0.00 0.00 0.00 0.00 0.00 0.00 0.00 0.00 0.00 0.00 0.00 0.00 0.00 0.00 0.00 0.00 0.00 0.00 0.00 0.00 0.00 0.00 0.00 0.00 0.00 0.00 0.00 0.00 0.00 0.00 0.00 0.00 0.00 0.00 0.00 0.01 0.01 0.01 0.01 0.02
0.00 0.00 0.00 0.00 0.00 0.00 0.00 0.00 0.00 0.00 0.00 0.00 0.00 0.00 0.00 0.00 0.00 0.00 0.00 0.00 0.00 0.00 0.00 0.00 0.00 0.00 0.00 0.00 0.00 0.00 0.00 0.00 0.00 0.00 0.00 0.00 0.00 0.00 0.00 0.00 0.00 0.00 0.00
0.00 0.00 0.00 0.00 0.00 0.00 0.00 0.00 0.00 0.00 0.00 0.00 0.00 0.00 0.00 0.00 0.00 0.00 0.00 0.00 0.01 0.00 0.00 0.00 0.00 0.00 0.00 0.00 0.00 0.00 0.00 0.00 0.00 0.00 0.00 0.00 0.00 0.00 0.00 0.00 0.00 0.00 0.00
0.00 0.00 0.00 0.00 0.00 0.00 0.00 0.00 0.00 0.00 0.00 0.00 0.00 0.00 0.00 0.00 0.00 0.00 0.00 0.00 0.01 0.01 0.01 0.01 0.01 0.00 0.00 0.00 0.00 0.00 0.00 0.00 0.00 0.00 0.00 0.00 0.00 0.00 0.00 0.00 0.00 0.00 0.00
0.00 0.00 0.00 0.00 0.00 0.00 0.00 0.00 0.00 0.00 0.00 0.00 0.00 0.00 0.00 0.00 0.00 0.00 0.00 0.00 0.01 0.01 0.01 0.01 0.01 0.01 0.00 0.00 0.00 0.01 0.00 0.00 0.00 0.00 0.00 0.00 0.00 0.00 0.00 0.00 0.00 0.00 0.00
0.00 0.00 0.00 0.00 0.00 0.00 0.00 0.00 0.00 0.00 0.00 0.00 0.00 0.00 0.00 0.00 0.00 0.00 0.00 0.00 0.01 0.01 0.01 0.01 0.01 0.01 0.01 0.01 0.01 0.01 0.01 0.01 0.00 0.00 0.00 0.00 0.00 0.00 0.00 0.00 0.00 0.00 0.00
0.00 0.00 0.00 0.00 0.00 0.00 0.00 0.00 0.00 0.00 0.00 0.00 0.00 0.00 0.00 0.00 0.00 0.00 0.00 0.00 0.00 0.01 0.01 0.01 0.01 0.01 0.01 0.01 0.01 0.01 0.01 0.01 0.01 0.00 0.00 0.00 0.00 0.00 0.00 0.00 0.00 0.00 0.00
MSLP
1011.51 1011.57 1011.66 1011.77 1011.90 1012.05 1012.23 1012.46 1012.74 1013.06 1013.42 1013.79 1014.14 1014.45 1014.67 1014.79 1014.82 1014.75 1014.63 1014.48 1014.33 1014.20 1014.11 1014.05 1014.00 1013.93 1013.81 1013.61 1013.32 1012.96 1012.55 1012.13 1011.74 1011.43 1011.22 1011.13 1011.15 1011.26 1011.43 1011.61 1011.78 1011.91 1011.99
1011.32 1011.33 1011.38 1011.46 1011.57 1011.70 1011.89 1012.12 1012.41 1012.76 1013.14 1013.54 1013.92 1014.25 1014.49 1014.64 1014.68 1014.63 1014.53 1014.39 1014.27 1014.17 1014.11 1014.07 1014.04 1013.98 1013.86 1013.67 1013.39 1013.03 1012.63 1012.22 1011.85 1011.55 1011.37 1011.29 1011.33 1011.45 1011.62 1011.80 1011.96 1012.08 1012.14
1011.28 1011.22 1011.20 1011.23 1011.30 1011.42 1011.58 1011.81 1012.11 1012.46 1012.86 1013.27 1013.66 1014.00 1014.26 1014.42 1014.48 1014.46 1014.38 1014.28 1014.18 1014.11 1014.07 1014.05 1014.03 1013.98 1013.87 1013.68 1013.40 1013.06 1012.68 1012.29 1011.95 1011.68 1011.52 1011.47 1011.52 1011.64 1011.82 1012.00 1012.15 1012.26 1012.30
1011.47 1011.32 1011.22 1011.18 1011.19 1011.27 1011.40 1011.60 1011.88 1012.21 1012.60 1013.00 1013.38 1013.72 1013.98 1014.16 1014.24 1014.25 1014.20 1014.14 1014.08 1014.03 1014.02 1014.01 1014.00 1013.95 1013.84 1013.65 1013.39 1013.06 1012.70 1012.35 1012.04 1011.81 1011.67 1011.64 1011.70 1011.83 1012.00 1012.18 1012.33 1012.43 1012.48
1011.95 1011.69 1011.50 1011.37 1011.31 1011.31 1011.38 1011.53 1011.76 1012.05 1012.39 1012.75 1013.11 1013.43 1013.68 1013.86 1013.96 1013.99 1013.99 1013.96 1013.93 1013.92 1013.92 1013.93 1013.92 1013.87 1013.77 1013.59 1013.35 1013.05 1012.72 1012.40 1012.13 1011.93 1011.81 1011.79 1011.86 1011.99 1012.15 1012.32 1012.46 1012.57 1012.62
1012.72 1012.35 1012.05 1011.82 1011.66 1011.58 1011.57 1011.63 1011.78 1011.99 1012.25 1012.55 1012.84 1013.12 1013.35 1013.52 1013.63 1013.69 1013.71 1013.72 1013.72 1013.73 1013.76 1013.78 1013.78 1013.74 1013.65 1013.50 1013.28 1013.02 1012.73 1012.45 1012.21 1012.03 1011.93 1011.91 1011.97 1012.08 1012.23 1012.38 1012.53 1012.64 1012.71
1013.71 1013.24 1012.84 1012.51 1012.25 1012.06 1011.94 1011.89 1011.92 1012.02 1012.18 1012.38 1012.59 1012.80 1012.98 1013.13 1013.24 1013.31 1013.35 1013.39 1013.42 1013.46 1013.50 1013.54 1013.56 1013.55 1013.48 1013.36 1013.19 1012.96 1012.72 1012.48 1012.26 1012.10 1012.00 1011.97 1012.01 1012.09 1012.22 1012.36 1012.50 1012.63 1012.73
1014.83 1014.28 1013.79 1013.36 1013.00 1012.69 1012.45 1012.28 1012.18 1012.14 1012.17 1012.24 1012.35 1012.47 1012.59 1012.70 1012.79 1012.86 1012.91 1012.96 1013.01 1013.08 1013.14 1013.20 1013.25 1013.27 1013.25 1013.17 1013.05 1012.88 1012.68 1012.47 1012.28 1012.12 1012.01 1011.96 1011.96 1012.02 1012.12 1012.24 1012.38 1012.52 1012.65
1015.95 1015.35 1014.79 1014.29 1013.83 1013.42 1013.06 1012.76 1012.52 1012.34 1012.22 1012.16 1012.15 1012.17 1012.21 1012.26 1012.31 1012.35 1012.40 1012.45 1012.52 1012.59 1012.67 1012.76 1012.85 1012.91 1012.94 1012.92 1012.85 1012.74 1012.59 1012.42 1012.24 1012.09 1011.96 1011.88 1011.85 1011.87 1011.94 1012.05 1012.19 1012.35 1012.51
1016.96 1016.34 1015.75 1015.19 1014.66 1014.17 1013.71 1013.29 1012.92 1012.60 1012.35 1012.16 1012.02 1011.94 1011.89 1011.86 1011.85 1011.85 1011.87 1011.90 1011.96 1012.03 1012.13 1012.24 1012.36 1012.47 1012.55 1012.60 1012.60 1012.55 1012.45 1012.31 1012.16 1012.00 1011.86 1011.75 1011.69 1011.67 1011.72 1011.82 1011.96 1012.13 1012.33
1017.76 1017.16 1016.57 1016.00 1015.43 1014.88 1014.35 1013.84 1013.37 1012.95 1012.58 1012.27 1012.02 1011.83 1011.68 1011.57 1011.49 1011.42 1011.39 1011.38 1011.39 1011.45 1011.54 1011.66 1011.81 1011.96 1012.10 1012.21 1012.27 1012.29 1012.24 1012.15 1012.02 1011.86 1011.71 1011.59 1011.50 1011.47 1011.50 1011.59 1011.74 1011.93 1012.14
1018.35 1017.79 1017.23 1016.67 1016.11 1015.53 1014.96 1014.40 1013.87 1013.37 1012.92 1012.52 1012.18 1011.89 1011.65 1011.45 1011.28 1011.13 1011.01 1010.93 1010.89 1010.90 1010.96 1011.07 1011.22 1011.40 1011.58 1011.75 1011.87 1011.95 1011.96 1011.91 1011.81 1011.68 1011.54 1011.41 1011.32 1011.28 1011.31 1011.40 1011.56 1011.76 1011.99
1018.74 1018.25 1017.74 1017.22 1016.68 1016.12 1015.55 1014.97 1014.41 1013.87 1013.37 1012.91 1012.51 1012.14 1011.81 1011.52 1011.25 1011.00 1010.78 1010.60 1010.47 1010.41 1010.41 1010.48 1010.61 1010.79 1011.00 1011.20 1011.38 1011.51 1011.58 1011.58 1011.53 1011.44 1011.32 1011.22 1011.14 1011.12 1011.16 1011.26 1011.43 1011.64 1011.88
1018.99 1018.57 1018.13 1017.66 1017.16 1016.63 1016.08 1015.52 1014.96 1014.42 1013.90 1013.42 1012.97 1012.54 1012.14 1011.76 1011.39 1011.03 1010.69 1010.40 1010.15 1009.98 1009.90 1009.90 1009.98 1010.14 1010.34 1010.56 1010.77 1010.95 1011.08 1011.14 1011.15 1011.11 1011.05 1010.99 1010.95 1010.96 1011.03 1011.15 1011.33 1011.55 1011.79
1019.17 1018.82 1018.44 1018.02 1017.57 1017.08 1016.56 1016.03 1015.50 1014.97 1014.46 1013.97 1013.49 1013.03 1012.57 1012.10 1011.63 1011.16 1010.71 1010.28 1009.91 1009.61 1009.41 1009.32 1009.32 1009.42 1009.59 1009.81 1010.03 1010.25 1010.42 1010.55 1010.63 1010.67 1010.68 1010.69 1010.72 1010.77 1010.88 1011.03 1011.22 1011.44 1011.68
1019.31 1019.02 1018.69 1018.32 1017.90 1017.45 1016.96 1016.47 1015.96 1015.46 1014.97 1014.48 1014.00 1013.51 1013.00 1012.47 1011.91 1011.33 1010.75 1010.20 1009.69 1009.26 1008.93 1008.72 1008.62 1008.64 1008.75 1008.93 1009.15 1009.39 1009.61 1009.80 1009.96 1010.09 1010.19 1010.29 1010.39 1010.51 1010.66 1010.84 1011.05 1011.27 1011.51
1019.46 1019.20 1018.90 1018.55 1018.15 1017.72 1017.26 1016.78 1016.30 1015.82 1015.35 1014.87 1014.39 1013.88 1013.33 1012.75 1012.12 1011.45 1010.77 1010.10 1009.47 1008.90 1008.44 1008.10 1007.88 1007.80 1007.83 1007.95 1008.15 1008.38 1008.64 1008.89 1009.12 1009.35 1009.55 1009.74 1009.93 1010.13 1010.33 1010.55 1010.77 1011.00 1011.24
1019.58 1019.35 1019.06 1018.71 1018.31 1017.88 1017.42 1016.95 1016.48 1016.01 1015.54 1015.07 1014.59 1014.07 1013.50 1012.88 1012.20 1011.47 1010.71 1009.94 1009.21 1008.53 1007.94 1007.47 1007.14 1006.94 1006.87 1006.92 1007.06 1007.28 1007.55 1007.84 1008.15 1008.46 1008.76 1009.06 1009.34 1009.61 1009.87 1010.12 1010.37 1010.61 1010.84
1019.66 1019.43 1019.13 1018.77 1018.35 1017.90 1017.43 1016.95 1016.47 1016.00 1015.53 1015.06 1014.57 1014.05 1013.47 1012.83 1012.12 1011.36 1010.55 1009.73 1008.92 1008.15 1007.46 1006.88 1006.43 1006.12 1005.94 1005.90 1005.98 1006.15 1006.41 1006.73 1007.09 1007.47 1007.86 1008.24 1008.61 1008.96 1009.27 1009.57 1009.84 1010.09 1010.33
1019.66 1019.42 1019.10 1018.71 1018.27 1017.79 1017.30 1016.80 1016.30 1015.82 1015.34 1014.87 1014.37 1013.84 1013.27 1012.63 1011.92 1011.15 1010.32 1009.47 1008.62 1007.80 1007.04 1006.38 1005.83 1005.40 1005.12 1004.98 1004.97 1005.09 1005.31 1005.62 1006.01 1006.43 1006.89 1007.34 1007.78 1008.20 1008.58 1008.91 1009.21 1009.48 1009.73
1019.55 1019.30 1018.95 1018.54 1018.07 1017.57 1017.05 1016.52 1016.01 1015.51 1015.02 1014.53 1014.03 1013.51 1012.94 1012.31 1011.61 1010.86 1010.05 1009.21 1008.36 1007.52 1006.72 1005.99 1005.36 1004.85 1004.46 1004.21 1004.11 1004.14 1004.30 1004.58 1004.96 1005.40 1005.89 1006.40 1006.90 1007.37 1007.80 1008.18 1008.51 1008.81 1009.09
1019.33 1019.06 1018.70 1018.26 1017.78 1017.25 1016.72 1016.18 1015.65 1015.13 1014.63 1014.13 1013.63 1013.10 1012.53 1011.92 1011.26 1010.54 1009.77 1008.96 1008.13 1007.30 1006.50 1005.74 1005.05 1004.45 1003.97 1003.62 1003.41 1003.35 1003.43 1003.64 1003.98 1004.41 1004.90 1005.44 1005.97 1006.49 1006.97 1007.40 1007.78 1008.12 1008.43
1019.01 1018.72 1018.34 1017.90 1017.41 1016.89 1016.34 1015.80 1015.27 1014.74 1014.23 1013.72 1013.20 1012.66 1012.11 1011.51 1010.87 1010.19 1009.47 1008.71 1007.93 1007.13 1006.34 1005.57 1004.85 1004.20 1003.64 1003.19 1002.87 1002.70 1002.68 1002.81 1003.08 1003.46 1003.93 1004.46 1005.02 1005.58 1006.10 1006.58 1007.01 1007.40 1007.77
1018.60 1018.30 1017.92 1017.48 1017.00 1016.49 1015.96 1015.42 1014.89 1014.36 1013.83 1013.31 1012.77 1012.22 1011.66 1011.07 1010.45 1009.80 1009.12 1008.42 1007.68 1006.93 1006.17 1005.42 1004.69 1004.00 1003.37 1002.84 1002.42 1002.14 1002.01 1002.04 1002.22 1002.53 1002.96 1003.47 1004.03 1004.60 1005.17 1005.70 1006.20 1006.65 1007.09
1018.14 1017.83 1017.45 1017.03 1016.56 1016.08 1015.57 1015.06 1014.53 1014.00 1013.45 1012.90 1012.34 1011.76 1011.17 1010.57 1009.96 1009.33 1008.68 1008.02 1007.34 1006.64 1005.92 1005.19 1004.46 1003.76 1003.09 1002.49 1001.99 1001.60 1001.36 1001.28 1001.36 1001.59 1001.95 1002.42 1002.97 1003.56 1004.16 1004.75 1005.31 1005.85 1006.36
1017.64 1017.32 1016.95 1016.55 1016.11 1015.66 1015.18 1014.68 1014.16 1013.62 1013.06 1012.47 1011.87 1011.25 1010.62 1009.99 1009.36 1008.73 1008.10 1007.46 1006.82 1006.17 1005.49 1004.80 1004.10 1003.39 1002.70 1002.06 1001.48 1001.01 1000.67 1000.49 1000.46 1000.60 1000.89 1001.31 1001.83 1002.42 1003.05 1003.70 1004.33 1004.95 1005.55
Thickness
5758 5756 5753 5751 5749 5746 5743 5740 5736 5732 5728 5725 5722 5719 5717 5715 5712 5709 5705 5701 5699 5696 5695 5693 5691 5688 5686 5684 5684 5683 5683 5684 5686 5687 5689 5694 5699 5702 5703 5708 5712 5716 5720
5755 5753 5751 5749 5748 5745 5742 5740 5736 5732 5729 5724 5722 5718 5715 5713 5711 5707 5703 5700 5697 5694 5693 5691 5689 5686 5682 5681 5680 5678 5678 5680 5682 5681 5682 5684 5688 5693 5700 5703 5706 5711 5715
5753 5753 5750 5748 5746 5743 5741 5738 5736 5732 5728 5724 5720 5716 5713 5711 5709 5706 5702 5699 5695 5692 5689 5688 5686 5684 5682 5680 5677 5676 5674 5674 5678 5680 5678 5678 5680 5686 5693 5698 5702 5705 5709
5751 5750 5747 5746 5745 5744 5742 5739 5736 5733 5728 5724 5719 5716 5711 5709 5707 5705 5702 5699 5695 5692 5688 5686 5684 5683 5681 5678 5677 5676 5673 5671 5672 5675 5677 5680 5681 5680 5683 5690 5696 5700 5703
5748 5747 5746 5745 5745 5744 5740 5738 5735 5731 5727 5723 5718 5714 5712 5710 5708 5704 5701 5698 5696 5692 5689 5686 5684 5682 5680 5678 5675 5673 5672 5671 5670 5671 5673 5675 5677 5681 5680 5681 5687 5693 5698
5745 5745 5745 5744 5743 5741 5738 5736 5732 5729 5725 5721 5718 5714 5711 5708 5705 5702 5699 5698 5696 5692 5690 5686 5684 5682 5680 5677 5675 5672 5671 5669 5669 5670 5671 5672 5673 5675 5678 5679 5682 5686 5692
5742 5741 5740 5740 5738 5737 5735 5734 5731 5727 5724 5721 5719 5716 5712 5709 5705 5702 5700 5697 5695 5693 5690 5687 5684 5682 5679 5677 5675 5672 5671 5670 5668 5668 5669 5671 5673 5675 5677 5678 5680 5683 5687
5737 5736 5736 5736 5735 5734 5733 5732 5729 5726 5724 5721 5720 5717 5714 5710 5708 5703 5700 5698 5695 5693 5690 5687 5684 5682 5679 5678 5676 5674 5672 5671 5670 5668 5668 5669 5672 5674 5675 5676 5677 5678 5683
5731 5732 5732 5733 5732 5731 5730 5729 5727 5725 5723 5721 5719 5716 5714 5710 5707 5704 5701 5698 5696 5693 5690 5687 5685 5683 5680 5678 5676 5674 5673 5672 5670 5670 5669 5669 5671 5673 5674 5676 5677 5676 5677
5725 5726 5727 5728 5729 5729 5728 5727 5725 5724 5722 5720 5718 5715 5712 5709 5706 5703 5701 5698 5695 5692 5689 5687 5685 5683 5680 5678 5676 5675 5673 5672 5671 5669 5669 5669 5671 5672 5673 5674 5676 5678 5678
5718 5720 5721 5722 5723 5724 5723 5722 5722 5720 5719 5717 5716 5713 5710 5708 5705 5702 5700 5697 5694 5692 5689 5687 5685 5683 5681 5679 5676 5675 5673 5672 5672 5671 5670 5669 5670 5671 5672 5673 5674 5676 5677
5713 5714 5715 5716 5717 5717 5718 5718 5717 5716 5714 5713 5712 5710 5708 5706 5703 5702 5699 5697 5695 5692 5690 5688 5685 5683 5681 5679 5677 5674 5673 5672 5671 5671 5671 5670 5669 5669 5671 5671 5672 5674 5676
5707 5709 5710 5710 5710 5711 5711 5712 5712 5711 5710 5709 5707 5706 5705 5704 5702 5700 5699 5696 5695 5692 5690 5687 5685 5682 5680 5679 5677 5675 5674 5673 5672 5671 5670 5670 5670 5669 5670 5669 5671 5672 5674
5702 5703 5703 5704 5704 5705 5705 5706 5706 5705 5705 5703 5702 5701 5701 5700 5698 5697 5695 5694 5693 5691 5689 5687 5685 5683 5681 5679 5678 5676 5674 5673 5672 5671 5670 5670 5670 5669 5669 5669 5670 5670 5670
5696 5696 5697 5697 5698 5699 5699 5699 5699 5699 5699 5698 5696 5696 5696 5695 5693 5692 5691 5690 5689 5688 5687 5686 5684 5682 5680 5678 5677 5675 5674 5673 5672 5671 5670 5669 5668 5666 5666 5667 5668 5667 5668
5689 5690 5691 5691 5691 5692 5692 5692 5692 5692 5692 5690 5690 5689 5689 5688 5686 5686 5686 5686 5685 5684 5683 5682 5681 5680 5679 5675 5671 5670 5672 5672 5671 5669 5669 5668 5666 5663 5661 5661 5662 5663 5666
5682 5683 5684 5684 5684 5685 5685 5684 5684 5684 5683 5682 5682 5681 5681 5680 5680 5680 5679 5679 5679 5680 5679 5679 5678 5677 5676 5672 5669 5666 5668 5670 5670 5670 5669 5667 5666 5663 5664 5661 5658 5659 5660
5676 5676 5677 5677 5677 5677 5676 5676 5675 5675 5674 5673 5672 5672 5672 5671 5672 5672 5671 5672 5674 5675 5674 5675 5675 5674 5673 5669 5666 5664 5666 5668 5669 5668 5667 5666 5665 5663 5663 5663 5661 5661 5661
5668 5668 5668 5669 5668 5667 5666 5666 5665 5664 5663 5661 5661 5662 5662 5662 5662 5663 5664 5665 5666 5668 5669 5670 5671 5670 5671 5667 5664 5661 5665 5666 5667 5666 5665 5665 5664 5660 5656 5659 5660 5658 5658
5659 5659 5659 5659 5657 5656 5656 5655 5654 5653 5651 5649 5649 5650 5651 5651 5652 5654 5656 5657 5658 5659 5662 5664 5666 5667 5668 5665 5661 5657 5663 5664 5664 5664 5663 5658 5658 5656 5653 5657 5657 5655 5655
5651 5650 5649 5647 5646 5645 5644 5643 5642 5641 5639 5639 5638 5638 5638 5639 5641 5643 5645 5647 5648 5650 5653 5656 5659 5661 5662 5661 5657 5655 5658 5661 5661 5661 5660 5659 5653 5651 5649 5651 5654 5653 5653
5642 5640 5638 5637 5635 5634 5633 5632 5630 5629 5628 5627 5626 5626 5627 5627 5630 5630 5632 5635 5637 5639 5643 5646 5650 5654 5656 5655 5654 5651 5651 5654 5656 5657 5658 5656 5650 5647 5645 5646 5646 5645 5645
5633 5630 5628 5626 5625 5624 5621 5619 5618 5617 5616 5615 5614 5614 5615 5616 5617 5618 5620 5623 5624 5627 5632 5636 5639 5644 5648 5649 5647 5646 5645 5645 5648 5652 5651 5648 5644 5642 5641 5639 5640 5640 5642
5623 5620 5618 5616 5614 5612 5610 5608 5606 5604 5603 5602 5602 5602 5603 5604 5604 5604 5607 5610 5613 5615 5618 5623 5627 5632 5636 5640 5642 5641 5639 5638 5638 5641 5640 5637 5636 5636 5637 5636 5636 5638 5641
5614 5610 5607 5604 5603 5601 5599 5596 5594 5592 5591 5591 5590 5589 5589 5589 5590 5592 5594 5596 5600 5601 5602 5608 5614 5619 5624 5630 5631 5632 5635 5637 5638 5637 5635 5634 5634 5634 5635 5636 5635 5635 5635
5603 5600 5597 5593 5592 5590 5587 5584 5581 5579 5578 5578 5577 5576 5575 5576 5577 5579 5583 5586 5586 5588 5589 5592 5597 5605 5609 5613 5616 5618 5622 5625 5626 5626 5630 5631 5632 5633 5633 5633 5631 5631 5630